Weather in Kostomarovo

Russia / Voronezh Oblast     50°41′25″N   39°46′01″E
temp.,
°C
wind,
m/s
gust,
m/s
humid.,
%
clouds,
%
prec.,
mm/h
press.,
hPa
HPBL,
m
25 february, thu
thu2500:00−13ssw5994100 0.4 1037355
03:00−12ssw51094100 0.8 1035376
06:00−11ssw51192100 0.2 1032408
09:00−9sw61187100 0.3 1030397
12:00−5sw71191100 0.1 1028443
15:00−2sw81392100 0.1 1024415
18:00−1wsw81594100 0.4 1021458
21:00+1w71397100 0.9 1020363
26 february, fri
fri2600:00+2w61398100 0.3 1020299
03:00+2wnw61298100 0.5 1020292
06:00+2wnw51298100 0.1 1019292
09:00+2w51099100 0.3 1019251
12:00+2w511100100 0.0 1018322
15:00+4w714100100 0.0 1017445
18:00+3w71497100 0.0 1015526
21:00+2w61397100 0.2 1014378
27 february, sat
sat2700:00+2w61294100 0.1 1012345
03:00+1w51195100 0.1 1012408
06:00+1w61293100 0.0 1010488
09:00+1w61296100 0.0 1010513
12:00+2wnw71195100 0.1 1009738
15:00+1w61197100 0.1 1009602
18:00+1wnw61197100 0.1 1009607
21:00+1wnw61096100 0.1 1010494
28 february, sun
sun2800:000wnw5997100 0.1 1010435
03:000nw4894100 0.2 1011305
06:00−1nnw379687 0.1 1012340
09:00−2nne578791 0.3 1014538
12:00−2n457699 0.1 1016730
15:00−1nnw468099 0.1 1017751
18:00−2nnw5779100 0.0 1018749
21:00−3n5884100 0.1 1021757
1 march, mon
mon100:00−3n488395 0.1 1022773
03:00−4n588697 0.1 1024744
06:00−5n388734 0.0 1025469
09:00−5n598040 0.0 1027686
12:00−3n576975 0.0 1029874
15:00−2nnw467087 0.0 1029886
18:00−3nnw3575100 0.0 1030564
21:00−3nw257692 0.0 1031566